• In Hungary
  • List of Countries
  • For 7 days
  • Water Temperature
  • Satellite Maps
  • Weather Map
  • News
  • Weather Widgets
  • user-avatar
    Login

    Hourly Weather Rangpur

    Today, 22 August, Wednesday

    Time Temperature Precipitation Wind Pressure Humidity
    00:00 +30°C° 0 mm 3 mps 748 mmHg 83%
    01:00 +30°C° 2.2 mm 3 mps 748 mmHg 84%
    02:00 +30°C° 2.2 mm 3 mps 748 mmHg 84%
    03:00 +30°C° 2.2 mm 3 mps 747 mmHg 84%
    04:00 +30°C° 0.9 mm 3 mps 747 mmHg 85%
    05:00 +29°C° 0.9 mm 3 mps 748 mmHg 85%
    06:00 +29°C° 0 mm 4 mps 748 mmHg 86%
    07:00 +30°C° 1.5 mm 4 mps 748 mmHg 82%
    08:00 +32°C° 1.5 mm 4 mps 748 mmHg 79%
    09:00 +33°C° 1.5 mm 4 mps 748 mmHg 75%
    10:00 +34°C° 1.2 mm 4 mps 748 mmHg 71%
    11:00 +35°C° 1.2 mm 3 mps 748 mmHg 66%
    12:00 +36°C° 1.2 mm 3 mps 747 mmHg 62%
    13:00 +36°C° 0.4 mm 3 mps 747 mmHg 61%
    14:00 +36°C° 0.4 mm 2 mps 746 mmHg 60%
    15:00 +37°C° 0.4 mm 2 mps 745 mmHg 59%
    16:00 +36°C° 0.2 mm 2 mps 745 mmHg 62%
    17:00 +36°C° 0.2 mm 2 mps 745 mmHg 65%
    18:00 +35°C° 0.2 mm 2 mps 745 mmHg 67%
    19:00 +35°C° 0.1 mm 2 mps 745 mmHg 70%
    20:00 +34°C° 0.1 mm 2 mps 746 mmHg 73%
    21:00 +33°C° 0.1 mm 3 mps 746 mmHg 76%
    22:00 +33°C° 1.5 mm 3 mps 746 mmHg 78%
    23:00 +31°C° 1.5 mm 3 mps 746 mmHg 80%

    Tomorrow, 23 August, Thursday

    Time Temperature Precipitation Wind Pressure Humidity
    00:00 +32°C° 1.5 mm 4 mps 747 mmHg 82%
    01:00 +31°C° 1.9 mm 3 mps 746 mmHg 83%
    02:00 +30°C° 1.9 mm 3 mps 746 mmHg 83%
    03:00 +30°C° 1.9 mm 3 mps 746 mmHg 84%
    04:00 +30°C° 0.9 mm 3 mps 746 mmHg 85%
    05:00 +30°C° 0.9 mm 3 mps 746 mmHg 86%
    06:00 +30°C° 0.9 mm 3 mps 747 mmHg 87%
    07:00 +30°C° 0.7 mm 4 mps 747 mmHg 83%
    08:00 +32°C° 0.7 mm 4 mps 747 mmHg 80%
    09:00 +33°C° 0.7 mm 5 mps 748 mmHg 77%
    10:00 +34°C° 0.3 mm 5 mps 747 mmHg 74%
    11:00 +35°C° 0.3 mm 4 mps 747 mmHg 71%
    12:00 +35°C° 0.3 mm 4 mps 747 mmHg 67%
    13:00 +36°C° 0.1 mm 4 mps 746 mmHg 66%
    14:00 +36°C° 0.1 mm 4 mps 746 mmHg 64%
    15:00 +37°C° 0.1 mm 4 mps 745 mmHg 62%
    16:00 +36°C° 0.3 mm 4 mps 745 mmHg 66%
    17:00 +35°C° 0.3 mm 3 mps 745 mmHg 69%
    18:00 +35°C° 0.3 mm 3 mps 745 mmHg 73%
    19:00 +34°C° 1.6 mm 3 mps 746 mmHg 75%
    20:00 +33°C° 1.6 mm 4 mps 747 mmHg 78%
    21:00 +32°C° 1.6 mm 4 mps 747 mmHg 81%
    22:00 +32°C° 2.2 mm 4 mps 747 mmHg 82%
    23:00 +32°C° 2.2 mm 4 mps 747 mmHg 83%

    Day after tomorrow, 24 August, Friday

    Time Temperature Precipitation Wind Pressure Humidity
    00:00 +30°C° 2.2 mm 4 mps 747 mmHg 84%
    01:00 +30°C° 2.4 mm 4 mps 747 mmHg 85%
    02:00 +30°C° 2.4 mm 4 mps 747 mmHg 85%
    03:00 +30°C° 2.4 mm 3 mps 746 mmHg 86%
    04:00 +29°C° 2.1 mm 3 mps 747 mmHg 87%
    05:00 +29°C° 2.1 mm 3 mps 747 mmHg 88%
    06:00 +29°C° 2.1 mm 3 mps 747 mmHg 89%
    07:00 +29°C° 1.5 mm 3 mps 747 mmHg 88%
    08:00 +29°C° 1.5 mm 4 mps 748 mmHg 87%
    09:00 +29°C° 1.5 mm 4 mps 748 mmHg 87%
    10:00 +30°C° 0.9 mm 4 mps 748 mmHg 85%
    11:00 +30°C° 0.9 mm 4 mps 748 mmHg 84%
    12:00 +30°C° 0.9 mm 4 mps 748 mmHg 83%
    13:00 +32°C° 0.4 mm 4 mps 748 mmHg 81%
    14:00 +32°C° 0.4 mm 4 mps 747 mmHg 80%
    15:00 +31°C° 0.4 mm 3 mps 747 mmHg 79%
    16:00 +31°C° 0.1 mm 3 mps 747 mmHg 80%
    17:00 +31°C° 0.1 mm 3 mps 747 mmHg 81%
    18:00 +30°C° 0.1 mm 2 mps 747 mmHg 82%
    19:00 +30°C° 0 mm 2 mps 747 mmHg 83%
    20:00 +29°C° 0 mm 2 mps 748 mmHg 84%
    21:00 +29°C° 0 mm 2 mps 748 mmHg 86%
    22:00 +29°C° 0.1 mm 2 mps 748 mmHg 86%
    23:00 +29°C° 0.1 mm 2 mps 748 mmHg 87%

    25 August, Saturday

    Time Temperature Precipitation Wind Pressure Humidity
    00:00 +29°C° 0.1 mm 2 mps 748 mmHg 88%
    01:00 +29°C° 1.6 mm 2 mps 748 mmHg 89%
    02:00 +28°C° 1.6 mm 2 mps 747 mmHg 90%
    03:00 +28°C° 1.6 mm 2 mps 747 mmHg 91%
    04:00 +28°C° 3.6 mm 2 mps 747 mmHg 91%
    05:00 +28°C° 3.6 mm 2 mps 747 mmHg 91%
    06:00 +28°C° 3.6 mm 3 mps 747 mmHg 91%
    07:00 +28°C° 4.2 mm 3 mps 748 mmHg 91%
    08:00 +28°C° 4.2 mm 3 mps 748 mmHg 90%
    09:00 +28°C° 4.2 mm 3 mps 748 mmHg 90%
    10:00 +29°C° 0.6 mm 3 mps 748 mmHg 86%
    11:00 +30°C° 0.6 mm 3 mps 748 mmHg 82%
    12:00 +31°C° 0.6 mm 3 mps 748 mmHg 78%
    13:00 +33°C° 0.1 mm 3 mps 747 mmHg 73%
    14:00 +34°C° 0.1 mm 2 mps 746 mmHg 69%
    15:00 +35°C° 0.1 mm 2 mps 745 mmHg 65%
    16:00 +35°C° 0 mm 2 mps 745 mmHg 67%
    17:00 +34°C° 0 mm 2 mps 745 mmHg 69%
    18:00 +33°C° 0 mm 1 mps 745 mmHg 71%
    19:00 +32°C° 0.2 mm 1 mps 745 mmHg 73%
    20:00 +32°C° 0.2 mm 2 mps 746 mmHg 76%
    21:00 +31°C° 0.2 mm 2 mps 747 mmHg 78%
    22:00 +31°C° 2.2 mm 2 mps 747 mmHg 81%
    23:00 +30°C° 2.2 mm 2 mps 747 mmHg 83%

    26 August, Sunday

    Time Temperature Precipitation Wind Pressure Humidity
    00:00 +30°C° 2.2 mm 2 mps 747 mmHg 85%
    01:00 +30°C° 1.6 mm 2 mps 746 mmHg 85%
    02:00 +30°C° 1.6 mm 2 mps 746 mmHg 85%
    03:00 +30°C° 1.6 mm 2 mps 746 mmHg 85%
    04:00 +29°C° 0.7 mm 2 mps 746 mmHg 86%
    05:00 +29°C° 0.7 mm 3 mps 746 mmHg 87%
    06:00 +29°C° 0.7 mm 3 mps 746 mmHg 88%
    07:00 +30°C° 0.1 mm 3 mps 747 mmHg 84%
    08:00 +32°C° 0.1 mm 4 mps 747 mmHg 80%
    09:00 +33°C° 0.1 mm 4 mps 747 mmHg 76%
    10:00 +34°C° 0.2 mm 4 mps 747 mmHg 71%
    11:00 +35°C° 0.2 mm 4 mps 747 mmHg 67%
    12:00 +36°C° 0.2 mm 3 mps 747 mmHg 63%
    13:00 +36°C° 0.1 mm 3 mps 746 mmHg 62%
    14:00 +36°C° 0.1 mm 3 mps 745 mmHg 61%
    15:00 +37°C° 0.1 mm 3 mps 744 mmHg 60%
    16:00 +36°C° 0.1 mm 2 mps 744 mmHg 63%
    17:00 +35°C° 0.1 mm 2 mps 744 mmHg 67%
    18:00 +35°C° 0.1 mm 2 mps 744 mmHg 70%
    19:00 +34°C° 0.9 mm 2 mps 745 mmHg 73%
    20:00 +32°C° 0.9 mm 2 mps 746 mmHg 76%
    21:00 +31°C° 0.9 mm 3 mps 747 mmHg 79%
    22:00 +31°C° 2 mm 3 mps 747 mmHg 81%
    23:00 +30°C° 2 mm 3 mps 747 mmHg 83%

    27 August, Monday

    Time Temperature Precipitation Wind Pressure Humidity
    00:00 +30°C° 2 mm 3 mps 747 mmHg 85%
    01:00 +30°C° 0.1 mm 3 mps 747 mmHg 86%
    02:00 +30°C° 0.1 mm 3 mps 746 mmHg 87%
    03:00 +29°C° 0.1 mm 3 mps 746 mmHg 87%
    04:00 +29°C° 0.2 mm 3 mps 746 mmHg 88%
    05:00 +29°C° 0.2 mm 3 mps 747 mmHg 89%
    06:00 +29°C° 0.2 mm 3 mps 747 mmHg 89%
    07:00 +30°C° 0.3 mm 3 mps 747 mmHg 85%
    08:00 +32°C° 0.3 mm 4 mps 748 mmHg 81%
    09:00 +33°C° 0.3 mm 4 mps 748 mmHg 78%
    10:00 +34°C° 0.3 mm 4 mps 748 mmHg 73%
    11:00 +35°C° 0.3 mm 4 mps 747 mmHg 69%
    12:00 +36°C° 0.3 mm 4 mps 747 mmHg 64%
    13:00 +36°C° 0.3 mm 3 mps 746 mmHg 63%
    14:00 +36°C° 0.3 mm 3 mps 746 mmHg 63%
    15:00 +36°C° 0.3 mm 2 mps 745 mmHg 62%
    16:00 +36°C° 0.6 mm 2 mps 745 mmHg 66%
    17:00 +35°C° 0.6 mm 2 mps 745 mmHg 70%
    18:00 +34°C° 0.6 mm 2 mps 745 mmHg 74%
    19:00 +34°C° 0.9 mm 2 mps 746 mmHg 77%
    20:00 +32°C° 0.9 mm 2 mps 746 mmHg 79%
    21:00 +31°C° 0.9 mm 3 mps 747 mmHg 82%
    22:00 +31°C° 0.6 mm 3 mps 747 mmHg 83%
    23:00 +31°C° 0.6 mm 3 mps 747 mmHg 84%
    Show more